Hourly Data Report for November 07, 2019

SAINT JOHN A
NEW BRUNSWICK
Current Station Operator: NAVCAN

45°18'58.000" N
65°53'24.000" W
108.80 m
8104901
71609
YSJ

Download Data

Hourly Data (November 2019)
Hourly Data Report for November 7, 2019
TIME
LST
Temp Definition
°C
Dew Point Definition
°C
Rel Hum Definition
%
Precip. Amount Definition
mm

Wind Dir Definition
10's deg

Wind Spd Definition
km/h
Visibility Definition
km
Stn Press Definition
kPa
Hmdx Definition


Wind Chill Definition


Weather Definition


00:00 0.4 -7.2 57   28 7 24.1 101.26     LegendNANA
01:00 -1.3 -6.2 69   24 7 24.1 101.29   -4 LegendNANA
02:00 -1.7 -5.3 77   15 3 24.1 101.21   -3 Clear
03:00 -3.3 -4.9 89   36 2 24.1 101.20   -4 LegendNANA
04:00 -2.5 -4.0 89   36 1 24.1 101.17   -3 LegendNANA
05:00 -1.7 -3.4 88   0 1 24.1 101.11   -2 Cloudy
06:00 -0.9 -3.0 86   36 1 24.1 101.06   -1 LegendNANA
07:00 -0.1 -1.9 88   17 3 24.1 100.99   -1 LegendNANA
08:00 1.3 -2.6 75   21 7 24.1 101.00     Mostly Cloudy
09:00 3.6 -1.5 69   17 15 24.1 100.93     Rain
10:00 4.6 0.4 74   15 14 24.1 100.81     Rain
11:00 6.2 2.2 75   17 8 24.1 100.71     Cloudy
12:00 7.0 3.0 76   25 9 19.3 100.62     Rain
13:00 6.2 4.2 87   17 5 24.1 100.48     Rain
14:00 8.6 5.8 82   22 20 24.1 100.38     Cloudy
15:00 9.0 6.2 82   21 31 16.1 100.26     Rain
16:00 7.3 6.3 93   25 16 8.1 100.23     Moderate Rain,Fog
17:00 7.2 6.3 94   24 17 8.1 100.22     Moderate Rain,Fog
18:00 4.6 4.0 95   33 15 16.1 100.22     Rain
19:00 4.2 3.6 96   33 9 24.1 100.16     Rain
20:00 3.5 3.0 97   35 13 12.9 100.10     Rain
21:00 2.1 1.6 96   1 17 9.7 100.14     Rain,Fog
22:00 1.0 0.6 97   4 7 8.1 100.05     Rain,Fog
23:00 0.4 0.2 98   8 4 4.8 99.95     Rain,Snow,Fog

Notes on Data Quality.

Legend

  • E = Estimated
  • M = Missing
  • NA = Not Available*
  • [empty] = Indicates an unobserved value
Date modified: